Wind_Speed
20 21 21 21 21 20 21 23 23 22 20 19 18 18 17 16 14 14 13 12 11 10 11 12 12 12 13 12 12 12 11 10 10 10 9 9 9 8 8 8 8 9 9 9 9 9 9 9 9
19 19 20 21 22 21 23 24 23 21 20 20 20 18 17 15 14 13 13 11 10 10 11 12 12 12 12 11 11 10 10 10 10 10 9 9 8 8 7 8 8 8 8 9 9 9 9 9 9
18 19 19 20 21 23 24 24 23 22 20 20 20 19 16 15 14 13 12 10 9 10 11 12 12 12 12 11 10 10 9 9 9 9 8 9 8 7 7 7 8 8 8 9 9 8 9 9 9
18 19 19 20 22 23 24 24 23 22 21 20 19 18 16 14 13 12 11 9 8 9 10 11 12 11 11 11 10 9 9 8 8 8 8 8 8 8 7 7 7 8 8 8 8 8 8 8 8
16 18 18 19 21 22 23 23 23 22 20 19 19 18 16 14 13 12 11 10 9 9 10 10 11 11 11 11 10 9 9 8 8 8 8 8 7 7 7 7 7 7 7 8 8 7 7 8 7
14 16 18 18 19 21 23 23 23 22 20 19 19 18 17 15 14 13 12 10 9 9 9 10 10 10 10 10 10 10 9 8 7 7 8 7 7 7 7 6 6 7 7 7 7 7 7 7 7
12 14 17 17 19 21 22 23 23 22 20 19 18 18 17 15 14 14 13 11 10 10 10 10 9 9 9 9 9 9 8 7 7 7 7 7 6 6 6 6 6 6 7 7 7 6 6 7 7
10 12 15 17 18 20 21 22 22 21 20 19 18 18 17 16 15 15 14 13 12 11 11 10 9 9 9 9 8 8 8 7 6 6 6 6 6 6 6 6 6 6 6 6 6 6 6 6 6
7 10 13 15 17 18 19 20 20 19 19 19 19 18 17 16 15 15 15 14 13 12 11 10 9 9 8 8 8 7 7 7 6 6 6 6 5 5 6 6 6 6 6 6 5 5 6 6 5
5 7 10 12 15 16 18 19 19 19 19 19 18 18 17 16 15 15 15 15 14 13 11 10 9 8 7 7 7 7 7 6 6 6 5 5 5 5 6 6 6 6 6 6 5 5 5 5 5
2 4 6 9 12 13 16 17 17 17 17 18 18 17 16 16 15 15 15 15 15 14 12 10 9 8 7 7 6 6 6 6 6 6 5 5 5 5 6 6 6 6 6 5 5 4 4 4 4
1 2 4 6 9 11 13 15 15 16 17 16 16 16 16 16 16 15 15 15 15 14 12 11 9 8 7 7 7 6 5 5 5 5 5 4 5 5 5 5 5 5 5 4 4 3 3 3 3
3 1 1 4 6 9 11 13 14 15 15 15 15 15 15 16 15 15 15 14 15 14 13 11 9 8 7 7 7 6 5 5 5 5 5 5 5 5 5 4 4 5 4 4 4 3 3 3 2
5 4 1 2 4 7 9 11 12 14 14 14 14 15 15 16 16 15 15 14 14 14 13 12 11 10 8 7 7 7 6 5 5 5 4 4 4 4 4 4 4 3 3 3 3 3 2 2 2
7 5 3 0 2 5 7 9 10 12 12 12 12 13 14 15 16 16 15 14 14 14 13 13 11 10 9 8 7 6 5 5 5 5 4 3 3 4 4 3 3 2 2 2 2 2 2 1 1
9 8 5 3 1 2 5 7 8 10 10 11 11 12 13 14 15 16 16 15 14 14 14 13 12 11 9 8 6 5 4 4 4 4 4 3 3 3 2 2 2 1 1 2 2 1 0 1 1
11 10 8 6 4 2 2 4 6 7 8 9 10 10 11 13 14 14 15 14 14 14 13 12 11 11 10 8 6 4 3 3 3 3 3 2 2 2 1 1 1 1 1 2 2 2 2 2 2
13 11 10 9 7 5 3 2 4 5 6 7 8 8 9 11 13 13 13 13 13 12 12 12 11 10 9 8 6 4 3 3 2 1 1 1 1 2 1 1 1 1 2 2 3 3 3 3 4
16 14 12 11 10 8 6 4 3 4 5 5 6 6 8 9 11 12 13 13 12 12 11 10 10 10 9 8 6 5 3 3 1 1 1 1 2 2 3 3 2 2 2 3 4 4 5 5 5
19 16 14 13 13 11 9 7 5 4 4 4 4 5 5 8 10 11 12 12 11 11 11 10 10 10 10 8 7 5 3 3 2 1 2 2 2 3 4 4 4 4 4 4 5 6 6 7 6
20 18 17 16 15 14 12 10 8 7 5 4 3 4 4 5 7 9 10 11 12 11 10 10 9 9 9 8 7 5 4 3 3 2 3 4 3 3 5 5 6 5 6 6 7 8 8 8 8
22 20 19 19 18 17 15 13 10 9 6 5 4 4 5 5 6 7 8 10 11 11 11 10 9 9 8 8 8 7 6 5 4 4 4 5 4 4 5 6 7 7 7 8 9 9 9 10 10
23 22 21 20 20 19 18 15 12 10 7 5 4 5 6 7 7 8 8 10 10 11 10 10 10 10 8 8 8 8 7 6 6 6 7 6 5 5 5 6 7 9 9 10 10 11 11 11 12
25 24 23 22 21 21 19 17 13 11 8 7 7 7 6 7 8 9 10 10 10 10 10 10 9 9 9 8 8 8 8 7 7 8 7 7 6 6 6 7 7 9 10 11 11 12 12 13 13
27 26 25 25 24 22 19 18 14 12 10 9 8 7 7 8 9 9 10 10 10 11 10 10 9 9 9 9 8 8 8 8 9 8 8 7 7 7 8 8 8 10 11 11 11 12 13 13 13
27 27 27 26 25 23 21 19 16 14 12 11 10 9 8 8 10 10 10 11 11 12 11 10 10 9 9 9 9 9 9 9 9 8 8 7 8 8 8 8 9 10 11 11 12 12 12 13 14
28 28 28 28 27 25 23 20 18 16 14 12 11 10 9 10 10 10 11 11 12 12 12 11 10 10 9 9 9 9 9 9 9 9 9 9 10 10 10 9 9 10 11 12 12 13 13 13 13
30 29 30 30 29 28 25 22 20 18 16 13 12 11 11 11 11 12 12 12 13 12 12 12 10 10 10 10 10 10 10 10 10 10 10 10 11 11 11 11 11 11 11 11 12 13 13 13 13
31 31 30 30 30 29 26 23 21 19 18 15 13 12 12 11 12 12 12 13 13 13 14 13 12 11 11 11 11 12 12 11 11 11 12 12 12 11 11 11 11 12 12 13 13 13 14 14 14
32 31 31 30 30 29 27 25 23 21 19 17 15 14 12 13 13 13 13 13 13 14 14 14 14 13 12 12 12 13 13 13 13 14 14 14 13 12 12 12 13 13 13 13 13 13 13 14 14
Wind_Direction
73 72 69 67 63 62 63 64 62 61 61 63 63 64 65 65 65 67 67 70 72 77 79 79 78 78 78 79 80 79 79 78 76 80 83 86 89 90 91 91 92 90 89 91 90 90 89 87 86
74 71 70 69 67 65 62 62 59 57 56 58 59 60 60 61 63 65 67 69 71 77 79 79 79 78 77 78 79 79 77 75 77 83 85 86 88 92 94 93 91 89 88 90 89 87 86 86 84
74 71 70 71 70 67 64 62 58 54 53 54 56 56 55 57 60 63 65 68 70 75 78 78 78 78 78 77 79 79 78 77 78 82 83 87 88 88 92 93 90 89 90 90 89 87 87 87 86
74 72 72 72 70 68 65 61 58 53 51 52 55 55 53 54 58 61 62 64 68 74 78 77 75 77 78 78 79 80 79 80 80 78 83 87 86 83 89 95 92 91 91 90 88 86 86 88 87
77 75 73 69 69 67 65 62 58 54 52 53 55 55 52 51 54 59 61 63 66 73 77 77 77 78 78 77 79 82 82 83 81 80 86 87 84 82 85 92 91 93 93 89 87 85 88 88 87
77 74 70 66 66 67 65 62 59 54 52 52 54 55 53 50 51 55 58 60 64 70 74 74 74 76 76 76 80 82 80 78 78 84 86 85 86 85 81 83 85 89 93 89 88 88 88 87 88
72 72 70 67 64 63 63 60 58 54 51 50 52 53 52 50 49 52 55 57 62 70 70 72 77 78 76 77 78 79 78 77 80 86 87 87 89 85 83 87 87 91 92 90 90 90 88 85 84
66 68 70 67 62 60 60 58 55 53 49 47 49 51 50 49 49 51 53 55 58 64 67 71 80 83 80 75 74 79 75 77 81 88 89 88 86 83 84 90 89 90 92 90 91 92 88 86 84
57 64 67 67 63 59 58 56 53 51 48 47 47 48 48 48 48 48 50 51 54 59 64 67 71 79 77 76 75 76 73 75 82 92 92 93 90 84 85 89 91 90 94 95 96 95 92 88 85
52 61 63 67 67 62 57 54 51 49 46 43 43 44 44 45 44 45 47 50 52 56 59 62 67 66 71 74 75 75 75 75 82 91 97 98 95 93 92 95 94 90 94 95 95 96 96 90 87
45 55 57 63 67 64 57 53 49 46 44 41 41 42 41 41 42 42 45 48 50 50 51 54 60 65 69 74 74 75 77 81 88 94 98 103 103 102 98 101 98 94 97 95 95 97 96 89 83
251 66 57 60 62 63 56 52 47 45 43 39 38 39 39 38 39 38 39 43 45 47 48 48 51 60 71 72 66 67 77 83 93 97 99 102 103 109 103 101 99 97 97 96 97 95 93 89 84
221 215 34 55 60 57 50 47 46 44 43 39 37 36 35 35 36 36 36 38 41 42 44 46 49 59 62 65 61 58 65 80 93 98 100 102 103 105 105 103 100 97 97 99 99 102 102 98 91
224 234 264 51 56 53 50 43 42 44 43 40 37 35 33 32 32 32 33 36 39 40 42 45 50 52 61 67 64 63 67 77 88 94 99 103 103 110 113 112 108 102 97 101 104 98 107 102 83
221 226 225 165 56 48 47 43 40 42 38 35 35 35 32 30 29 29 30 33 36 37 40 43 47 53 56 57 57 56 59 73 82 93 96 102 108 120 121 118 116 111 114 123 112 98 97 98 81
224 223 227 225 219 27 33 42 39 38 34 29 32 34 32 29 28 28 29 32 33 34 36 39 41 44 46 45 46 45 54 68 85 95 95 97 112 133 138 146 136 141 152 159 154 156 326 340 335
226 226 231 230 231 252 9 37 35 27 24 22 26 30 30 26 24 23 24 27 30 30 31 34 33 34 35 35 35 40 50 73 95 107 103 112 135 144 151 171 174 172 193 200 191 208 249 280 298
231 233 235 238 241 249 287 349 25 16 11 13 17 25 25 21 19 19 20 21 23 26 28 28 28 26 27 26 26 36 48 61 86 100 138 176 178 194 246 267 214 221 233 229 225 239 256 267 281
233 238 240 243 248 254 270 286 315 340 351 356 7 15 19 19 17 16 16 16 17 19 20 22 20 21 23 23 22 26 31 33 35 10 322 280 257 239 257 260 243 244 250 247 249 256 263 267 277
232 237 240 244 250 257 267 270 276 296 317 335 352 6 14 18 16 11 9 10 11 12 13 14 13 17 22 25 19 17 12 2 357 345 324 304 283 267 265 257 252 252 258 258 261 268 272 273 277
233 236 239 241 248 257 263 265 270 274 281 298 325 337 344 2 4 1 359 358 359 360 2 1 6 13 15 13 8 0 354 346 339 321 321 319 302 274 263 263 261 262 263 265 268 272 273 276 278
233 235 236 239 245 253 259 262 264 263 265 279 292 310 315 331 345 350 353 349 348 351 352 348 355 358 3 3 1 360 351 338 322 310 305 307 307 291 281 267 266 265 266 267 270 272 273 276 279
231 233 234 237 242 249 255 260 260 258 261 267 281 295 300 312 321 331 337 336 338 344 344 340 347 349 351 352 356 355 349 333 322 314 306 303 309 304 294 281 273 268 265 267 269 268 270 273 277
228 231 234 237 241 246 253 259 260 259 262 261 268 278 290 304 310 317 322 321 323 332 337 339 336 340 340 338 338 343 341 334 325 321 316 309 303 300 299 292 282 274 267 265 266 269 272 273 276
228 230 233 237 240 246 250 256 259 257 258 260 270 272 281 292 294 306 311 308 311 318 327 331 329 327 328 329 330 330 332 331 329 325 319 312 305 299 296 290 286 278 273 273 273 276 274 274 276
230 232 235 238 241 245 248 253 256 258 259 261 267 269 277 286 289 294 297 303 301 307 316 324 322 320 321 323 322 319 319 322 322 323 326 320 313 306 302 297 294 285 279 278 277 280 279 280 281
231 232 235 239 242 244 247 252 254 257 260 262 262 266 273 281 285 287 293 298 301 305 309 311 312 311 310 313 315 313 315 315 315 312 312 312 311 309 305 303 299 291 287 281 278 281 281 283 285
231 232 234 238 241 243 247 250 252 255 256 256 255 263 271 274 280 282 283 290 296 298 297 298 300 303 304 305 310 313 310 307 306 305 304 305 310 310 303 299 300 296 292 288 282 283 285 283 282
231 232 234 238 242 244 247 248 250 252 252 250 254 262 266 274 281 284 286 289 291 293 295 297 295 294 298 299 302 303 300 298 299 301 302 303 306 309 306 304 301 297 293 290 285 285 286 286 283
231 233 236 238 242 245 247 247 247 249 249 251 253 258 267 276 283 286 286 287 290 293 293 294 294 289 289 292 295 298 295 294 296 296 298 299 301 302 302 302 301 300 297 291 288 289 289 289 286
Height
5903 5902 5901 5901 5900 5898 5896 5895 5894 5893 5893 5893 5892 5891 5890 5890 5891 5893 5890 5889 5889 5889 5888 5888 5887 5887 5887 5887 5887 5888 5888 5888 5889 5889 5890 5890 5891 5891 5891 5892 5892 5892 5892 5892 5893 5893 5893 5893 5893
5906 5906 5905 5904 5902 5900 5899 5897 5896 5896 5896 5894 5893 5893 5892 5892 5892 5892 5891 5891 5891 5891 5890 5889 5889 5889 5888 5888 5889 5889 5890 5890 5890 5891 5891 5892 5892 5893 5893 5893 5893 5893 5894 5894 5894 5894 5894 5894 5894
5909 5909 5908 5907 5904 5903 5902 5900 5899 5899 5898 5897 5896 5895 5895 5894 5894 5893 5893 5893 5893 5892 5891 5890 5890 5890 5890 5890 5890 5890 5891 5891 5892 5892 5892 5893 5893 5894 5894 5895 5895 5895 5895 5896 5896 5896 5896 5896 5896
5912 5912 5911 5910 5907 5906 5904 5903 5902 5901 5900 5899 5898 5898 5897 5897 5896 5896 5895 5895 5894 5893 5892 5892 5891 5891 5891 5891 5891 5891 5892 5892 5893 5893 5894 5894 5894 5895 5895 5896 5896 5897 5897 5897 5897 5898 5897 5897 5897
5915 5915 5914 5912 5910 5909 5907 5906 5905 5904 5903 5902 5901 5900 5900 5900 5898 5897 5897 5896 5896 5895 5894 5893 5893 5893 5892 5892 5892 5892 5893 5893 5894 5894 5895 5895 5896 5896 5897 5897 5897 5898 5898 5899 5899 5899 5899 5899 5899
5917 5917 5916 5914 5913 5912 5910 5908 5907 5907 5906 5905 5904 5903 5903 5902 5901 5900 5899 5898 5897 5896 5895 5894 5894 5894 5894 5894 5894 5894 5894 5894 5895 5895 5896 5896 5897 5897 5898 5898 5899 5899 5899 5900 5900 5900 5900 5900 5900
5919 5919 5918 5917 5916 5914 5913 5911 5910 5910 5909 5908 5907 5906 5905 5904 5903 5902 5901 5900 5898 5897 5896 5896 5895 5895 5895 5895 5895 5895 5895 5896 5896 5896 5897 5897 5898 5898 5899 5899 5900 5900 5900 5901 5901 5901 5901 5901 5901
5920 5921 5919 5919 5918 5917 5916 5915 5914 5913 5912 5911 5909 5908 5907 5907 5905 5904 5902 5901 5900 5899 5898 5897 5897 5897 5897 5896 5896 5897 5897 5897 5897 5897 5898 5898 5899 5899 5900 5900 5901 5901 5902 5902 5902 5902 5902 5902 5902
5921 5922 5920 5920 5920 5920 5919 5918 5917 5916 5915 5914 5912 5911 5910 5909 5907 5906 5904 5903 5901 5900 5899 5899 5898 5898 5898 5897 5898 5898 5898 5898 5898 5898 5899 5899 5900 5900 5901 5901 5902 5902 5902 5903 5903 5903 5903 5903 5903
5922 5922 5922 5922 5922 5922 5921 5921 5920 5919 5918 5916 5915 5913 5912 5911 5909 5908 5906 5904 5903 5902 5901 5900 5900 5899 5899 5899 5899 5899 5899 5899 5899 5899 5900 5900 5901 5901 5901 5902 5902 5903 5903 5904 5904 5904 5904 5904 5904
5922 5923 5923 5923 5923 5923 5923 5923 5922 5921 5920 5919 5917 5916 5914 5913 5912 5910 5908 5906 5905 5904 5903 5902 5901 5900 5900 5900 5900 5900 5900 5900 5900 5900 5900 5901 5901 5902 5902 5903 5903 5904 5904 5905 5905 5905 5905 5905 5905
5923 5923 5924 5924 5925 5925 5925 5925 5924 5923 5922 5921 5919 5918 5917 5915 5914 5912 5910 5908 5907 5905 5904 5903 5902 5901 5901 5901 5901 5901 5900 5900 5901 5901 5901 5902 5902 5903 5903 5904 5904 5905 5905 5906 5906 5906 5906 5906 5906
5923 5924 5924 5925 5925 5926 5926 5926 5926 5925 5924 5923 5921 5920 5919 5917 5916 5914 5912 5910 5909 5907 5906 5904 5902 5902 5902 5902 5902 5902 5901 5901 5901 5902 5902 5902 5903 5904 5904 5904 5905 5905 5906 5906 5906 5907 5907 5907 5907
5923 5924 5924 5925 5926 5926 5927 5927 5927 5927 5926 5925 5923 5922 5921 5919 5917 5915 5914 5912 5910 5909 5908 5906 5905 5904 5903 5903 5903 5903 5902 5902 5902 5902 5903 5903 5904 5904 5905 5905 5906 5906 5906 5907 5907 5907 5907 5908 5908
5922 5924 5925 5925 5926 5926 5928 5928 5928 5928 5927 5927 5925 5924 5922 5921 5919 5917 5915 5914 5912 5911 5909 5908 5907 5906 5905 5904 5904 5903 5903 5903 5903 5903 5903 5904 5904 5905 5905 5906 5906 5906 5907 5907 5907 5908 5908 5908 5908
5922 5923 5925 5926 5926 5927 5929 5929 5929 5929 5929 5928 5927 5925 5924 5923 5921 5919 5917 5916 5914 5913 5911 5910 5908 5907 5906 5905 5905 5904 5904 5903 5903 5903 5904 5904 5904 5905 5905 5906 5906 5906 5907 5907 5907 5908 5908 5908 5909
5921 5922 5924 5925 5926 5927 5928 5929 5929 5929 5929 5929 5928 5927 5925 5924 5923 5921 5919 5918 5916 5914 5913 5911 5910 5909 5908 5907 5906 5905 5904 5904 5904 5904 5904 5905 5905 5905 5905 5906 5906 5906 5906 5907 5907 5908 5908 5908 5908
5919 5921 5923 5925 5926 5927 5927 5928 5929 5929 5929 5929 5928 5927 5926 5925 5924 5922 5921 5919 5917 5916 5914 5913 5912 5910 5909 5907 5907 5906 5905 5905 5904 5904 5905 5905 5905 5905 5905 5905 5905 5906 5906 5906 5907 5907 5907 5908 5908
5917 5920 5922 5923 5924 5926 5927 5928 5928 5928 5929 5929 5928 5928 5927 5926 5925 5923 5922 5920 5919 5917 5916 5914 5913 5911 5909 5908 5907 5907 5906 5906 5905 5905 5905 5905 5905 5905 5905 5905 5905 5905 5906 5906 5906 5906 5907 5907 5907
5915 5918 5920 5921 5922 5924 5925 5926 5927 5927 5928 5929 5928 5927 5927 5926 5925 5924 5923 5921 5920 5918 5917 5915 5914 5912 5910 5909 5908 5907 5907 5906 5906 5905 5905 5904 5904 5904 5905 5905 5905 5905 5905 5905 5905 5905 5905 5905 5906
5913 5916 5918 5920 5920 5922 5924 5925 5926 5927 5927 5928 5928 5927 5927 5926 5925 5924 5923 5922 5920 5919 5917 5916 5914 5913 5912 5910 5909 5908 5907 5906 5906 5905 5904 5904 5904 5903 5903 5903 5903 5904 5904 5904 5904 5904 5904 5904 5904
5910 5913 5915 5917 5918 5920 5922 5923 5925 5925 5926 5926 5927 5927 5926 5925 5924 5923 5922 5921 5919 5918 5917 5916 5914 5912 5911 5910 5909 5908 5907 5906 5905 5904 5904 5903 5903 5902 5902 5902 5902 5902 5902 5902 5902 5902 5902 5902 5902
5907 5909 5912 5914 5915 5917 5919 5921 5923 5924 5924 5925 5926 5926 5925 5924 5923 5922 5922 5920 5919 5917 5916 5915 5914 5912 5910 5910 5909 5908 5907 5906 5905 5904 5903 5902 5901 5901 5900 5900 5900 5900 5900 5900 5900 5900 5900 5900 5900
5903 5906 5908 5910 5912 5914 5916 5918 5920 5922 5923 5924 5924 5924 5924 5923 5922 5922 5921 5920 5918 5916 5915 5914 5913 5912 5911 5910 5908 5907 5906 5905 5904 5903 5902 5901 5900 5900 5899 5899 5898 5898 5898 5897 5897 5898 5898 5897 5897
5898 5902 5904 5906 5908 5911 5914 5915 5918 5920 5921 5921 5922 5922 5922 5922 5921 5920 5920 5919 5917 5915 5914 5913 5912 5911 5910 5909 5907 5907 5905 5904 5903 5902 5901 5900 5899 5898 5898 5897 5896 5896 5895 5895 5895 5895 5895 5894 5894
5894 5898 5901 5903 5905 5908 5910 5911 5915 5917 5918 5919 5919 5920 5920 5920 5919 5919 5918 5917 5916 5915 5913 5912 5911 5910 5909 5908 5906 5905 5904 5903 5902 5901 5900 5898 5897 5897 5896 5895 5894 5893 5893 5892 5892 5892 5891 5891 5890
5889 5892 5896 5899 5901 5904 5906 5909 5911 5913 5915 5916 5917 5917 5918 5918 5917 5917 5916 5915 5914 5913 5912 5911 5910 5909 5907 5906 5905 5904 5903 5902 5901 5900 5898 5897 5895 5894 5894 5893 5892 5891 5891 5890 5890 5889 5888 5887 5887
5884 5888 5891 5893 5896 5899 5902 5905 5908 5910 5911 5913 5914 5915 5915 5915 5915 5914 5913 5912 5912 5911 5910 5908 5907 5906 5905 5904 5903 5902 5901 5900 5899 5898 5897 5895 5894 5892 5891 5891 5890 5889 5888 5887 5887 5886 5885 5884 5884
5879 5882 5885 5889 5892 5895 5898 5903 5904 5906 5908 5910 5911 5912 5912 5912 5911 5911 5910 5910 5909 5908 5907 5906 5905 5903 5903 5902 5901 5900 5899 5898 5897 5896 5895 5894 5892 5891 5889 5888 5887 5886 5885 5885 5884 5883 5882 5881 5880
5873 5877 5881 5885 5887 5890 5894 5900 5900 5902 5904 5906 5908 5908 5909 5909 5908 5908 5907 5907 5906 5905 5905 5904 5903 5901 5900 5899 5898 5897 5896 5895 5894 5894 5892 5891 5890 5888 5887 5886 5885 5884 5883 5882 5881 5880 5879 5878 5877